THORAD AGENA D DEB

Satellite information

Favourite Embed

Satellite Type and Status

DEBRISIN ORBIT

Key statistics

Satellite THORAD AGENA D DEB at a glance.

Uptime

20242

Days in orbit

Revolutions

≈ 13.8

Per day

Orbit

SSO

Sun Synchronous Orbit

Inclination

99.6

Latest

Satellite identification and parameters

Extended collection of information and parameters for THORAD AGENA D DEB.

Object identification

Identified? True

Debris? True

Object name: THORAD AGENA D DEB

International designator: 1970-025RL

Object number (NORAD): 42506

Object ID (CCSDS): 42506

Country: UNITED STATES OF AMERICA (US)

Current information (Y/N): Y

RCS size: SMALL

Orbital parameters

Period: 104.247 minutes

Inclination: 99.5878 deg

SMA: 7337.294 km

Apoapsis: 994.964 km

Periapsis: 923.353 km

RAAN: 316.7365 deg

Eccentricy: 0.00487996

Argument of periapsis: 337.8171 deg

Mean anomaly: 22.0869 deg

Mean motion: 13.81334661 rev/day

Mean motion (dot): 0.00000634 rev/day2

B* drag term: 0.00063473766 1/REarth

Two-line elements (TLE)

Creation date: Sept. 7, 2025, 3:09 a.m.

Reference frame: TEME

Reference center: EARTH

Epoch: Sept. 6, 2025, 10:17 p.m. UTC

TLE line 0: 0 THORAD AGENA D DEB

TLE line 1: 1 42506U 70025RL 25249.92906434 .00000634 00000-0 63474-3 0 9990

TLE line 2: 2 42506 99.5878 316.7365 0048800 337.8171 22.0869 13.81334661243772

Live tracking on map

Real-time ground track for satellite THORAD AGENA D DEB.

In-orbit conjunctions

A list of the most updated potential collisions computed for object THORAD AGENA D DEB.

Target Orbit TCA Probability of collision Miss distance Type
COSMOS 778 LEO 2024-07-20 01:18:43 0.001323061 148.0 (m) PAYLOAD

Associated space launch

Meteorological research and development satellite

THORAD AGENA D DEB was lifted into orbit during the mission ‘Thorad SLV-2G Agena D | Nimbus 4’, on board a Thorad SLV-2G Agena D space rocket.

The launch took place on April 8, 1970, 8:17 a.m. from Space Launch Complex 2E.

For more information about the launch, click the button.

Launch to space Thorad SLV-2G Agena D | Nimbus 4
Thorad SLV-2G Agena D | Nimbus 4

Agency: N/A

Status: Launch Successful

Launch date: April 8, 1970, 8:17 a.m. UTC

Rocket: Thorad SLV-2G Agena D

Launch pad: Space Launch Complex 2E

Location: Vandenberg SFB, CA, USA

...

Latest news about this satellite

There are no fresh news available about this satellite. Check back as we update our databases every day.


Newsletter sign-up

Weekly statistics, charts and insights to help you stay on top of the space industry.